Regional Weather Roundup
Issued by NWS State College, PA

Current Version | Previous Version | Text Only | Print | Product List | Glossary On
Versions: 1 2 3 4 5 6 7 8 9 10 11 12 13 14 15 16 17 18 19 20 21 22 23 24 25 26 27 28 29 30 31 32 33 34 35 36 37 38 39 40 41 42 43 44 45 46 47 48 49 50
000
ASUS41 KCTP 180910
RWRCTP

REGIONAL WEATHER ROUNDUP
NATIONAL WEATHER SERVICE STATE COLLEGE PA
500 AM EDT FRI AUG 18 2017

Note: "fair" indicates few or no clouds below 12,000 feet with no
significant weather and/or obstructions to visibility.

* = STATION THAT DOES NOT REPORT PRECIPITATION /E.G. RAIN...SNOW...ETC/
    THUNDER OR FOG.

PAZ002>004-007>009-013>016-020>023-029>032-181000-
WESTERN PENNSYLVANIA

CITY           SKY/WX    TMP DP  RH WIND       PRES   REMARKS
ERIE           CLEAR     73  70  90 S9        29.77S
MEADVILLE      PTCLDY    71  71 100 SW7       29.83R
FRANKLIN*      CLOUDY    70  66  88 SW7       29.85S
NEW CASTLE     CLOUDY    72  71  97 VRB3      29.84S
BEAVER COUNTY  NOT AVBL
BUTLER*        CLOUDY    71  70  96 VRB3      29.86R
PITTSBURGH INT CLOUDY    72  72 100 CALM      29.84S
PITTSBURGH     CLOUDY    71  68  90 S7        29.85F FOG
INDIANA*       CLOUDY    70  70 100 SW6       29.90S FOG
LATROBE        LGT RAIN  72  72 100 S7        29.88S
WASHINGTON CO* CLOUDY    70  68  94 CALM      29.86S
$$

PAZ004>006-010>012-017>019-024>028-033>037-041-042-045-046-049>053-181000-
CENTRAL PENNSYLVANIA

CITY           SKY/WX    TMP DP  RH WIND       PRES   REMARKS
BRADFORD       CLOUDY    71  70  96 SW7       29.86S
DUBOIS         CLOUDY    70  67  90 SW7       29.86F
CLEARFIELD     LGT RAIN  72  70  93 SW8       29.87S
JOHNSTOWN      CLOUDY    70  69  97 W8        29.92S
ALTOONA        CLOUDY    71  71 100 CALM      29.89S
STATE COLLEGE  RAIN      73  72  97 SW6       29.86S
WILLIAMSPORT   CLOUDY    78  74  87 VRB5      29.81F
SELINSGROVE    PTCLDY    75  74  96 CALM      29.84F
FT INDIANTOWN  CLOUDY    74  74 100 CALM      29.85F
CAPITAL CITY   CLOUDY    78  73  84 CALM      29.84F
HARRISBURG     CLOUDY    77  74  90 CALM      29.84S
YORK           MOCLDY    76  74  93 CALM      29.85F
$$

PAZ038>040-043-044-047-048-054-055-060>062-067>071-181000-
EASTERN PENNSYLVANIA

CITY           SKY/WX    TMP DP  RH WIND       PRES   REMARKS
SCRANTON       CLOUDY    74  72  93 CALM      29.86S
MOUNT POCONO   CLOUDY    68  68 100 S8        29.92F FOG
ALLENTOWN      TSTM      74  70  87 W5        29.89R FOG
QUAKERTOWN*    PTSUNNY   73  68  83 S5        29.89S
READING        CLOUDY    75  73  93 NE3       29.85S
LANCASTER      CLOUDY    75  74  96 CALM      29.86S
COATESVILLE    CLOUDY    72  70  94 VRB5      29.89F
POTTSTOWN      CLOUDY    73  69  87 CALM      29.89F
BLUE BELL      CLOUDY    72  68  88 S7        29.89F
DOYLESTOWN     CLOUDY    73  69  87 S6        29.87F
WILLOW GROVE   NOT AVBL
NORTH PHILA    PTCLDY    76  70  82 S5        29.89F
PHILADELPHIA   CLOUDY    76  69  79 SW6       29.88F
$$



USA.gov is the U.S. government's official web portal to all federal, state and local government web resources and services.